Location: Gerlach
(40.6516°N, 119.3568°W)
Time: 05:44:34
(UTC-07:00)

Explorer 11/Cluster Stage 4 - Pass Details

Date: 04 February 2023
Orbit: 466 x 1241 km, 28.8° (Epoch: 02 April)

Event Time Altitude Azimuth Distance (km) Brightness Sun altitude
Exits shadow 05:06:30 17° 218° (SW) 2,588 8.9 -22.7°
Maximum altitude 05:11:15 31° 169° (S) 1,994 8.7 -21.8°
Drops below altitude 10° 05:18:10 10° 111° (ESE) 3,193 10.8 -20.4°
Sets 05:21:23 0° 102° (ESE) 4,125 11.9 -19.8°
